Location: Burgberg
(50.1428°N, 11.0671°E)
Time: 22:43:24
(UTC+00:00)

STARLINK-52 - Pass Details

Date: 26 January 2020
Orbit: 425 x 426 km, 53.0° (Epoch: 18 February)

Event Time Altitude Azimuth Distance (km) Brightness Sun altitude
Exits shadow 05:42:00 18° 264° (W) 1,153 4.7 -12.2°
Maximum altitude 05:43:48 29° 217° (SW) 859 4.4 -11.9°
Drops below altitude 10° 05:46:56 10° 156° (SSE) 1,587 6.5 -11.4°
Sets 05:49:15 0° 145° (SE) 2,464 7.8 -11.1°
